DECAYED

FALCON 9 R/B, 62878 (Decayed)

Orbit data source: Space-Track

FALCON 9 R/B, 62878 was space debris in LEO originally from a launch on Sat, 01 Feb 2025 UTC launched from the Air Force Western Test Range (AFWTR). Debris objects in space refer to the collection of defunct objects orbiting the Earth. Examples of debris include non-operational satellites, rocket bodies, and fragments generated from explosions, collisions, or faulty payload assembly.

Not visible in the next 10 days
Identifier
62878, 2025-022Y
Orbit
Decayed
Last TLE update
4 months ago
Origin
Manufacturer
SpaceX
Mission
Decayed spacecraft
Bus & Motor
F9ST2, Unknown motor
Mass
~3,000 kg wet, ~3,000 kg dry
Launch date (UTC)
2025-02-01 (5 months ago)
Launch vehicle
Unknown
Launch site
Air Force Western Test Range (AFWTR)
Object type
Payload
Rocket body
Debris
Shape & HBR
Cyl, 15.53 m
Radar Cross Section
39.980 m², Large (>1 m²)

Expand to show TLE details & history

TLE from 4 months ago
0 FALCON 9 R/B
1 62878U 25022Y   25050.09289105  .10554311  13066-4  11008-3 0  9991
2 62878  53.1436 118.6486 0031063   5.7660  67.2814 16.47531719  2741
Epoch: 2025-02-19T02:13Z
TLE epoch observation values (Epoch: 2025-02-19T02:13:45.786Z)
Latitude
50.21461°
Longitude
-0.57115°
Altitude
143.888 km
Speed
7.831 km/s
True Right ascension
12h 08m 37s
True Declination
50° 01' 46"
Sunlit
Object was in full shadow at epoch
Visualization orbit readout
Visualization observer readout
Orbital elements
Apogee altitude
166.381 km
Perigee altitude
125.849 km
Semi-major axis
6,524.252 km
Eccentricity
0.00311
Inclination
53.1436°
RAAN
118.6486°
Arg. of periapsis
5.766°
True anomaly
Unknown
Mean anomaly
67.2814°
Eccentric anomaly
Unknown
Mean motion
4.11858 °/min
Orbital period
87.41 mins
BSTAR
0.00011008
Loading maneuver chart data...
Loading SW <> Apogee altitude chart data...
Loading historical data...
Loading historical data...
Loading historical data...
Loading historical data...
Loading historical data...
Loading historical data...
Loading historical data...

FALCON 9 R/B Visibility

Observer location: undefined°, undefined°

This satellite is decayed
Span
Click to sort rows by Start time (UTC) header in descending order
Start Az.
Max El. time (UTC)
Max El. Az.
Max El.
End time (UTC)
End Az.
|